Location: Baix
(44.7118°N, 4.7648°E)
Time: 00:42:40
(UTC+00:00)

Vanguard 3 - Pass Details

Date: 30 November 2020
Orbit: 508 x 3262 km, 33.3° (Epoch: 19 January)

Event Time Altitude Azimuth Distance (km) Brightness Sun altitude
Rises 19:47:39 0° 220° (SW) 2,712 - -39.4°
Reaches altitude 10° 19:51:25 10° 182° (S) 1,711 - -40.0°
Maximum altitude 19:52:30 11° 164° (SSE) 1,646 - -40.2°
Drops below altitude 10° 19:53:36 10° 146° (SSE) 1,727 - -40.4°
Sets 19:57:28 0° 109° (ESE) 2,790 - -41.1°
